Location: Grand Mazuras
(45.9128°N, 1.7636°E)
Time: 06:58:01
(UTC+00:00)

USA 229 - Pass Details

Date: 18 April 2021
Orbit: 958 x 1254 km, 63.4° (Epoch: 23 April)

Event Time Altitude Azimuth Distance (km) Brightness Sun altitude
Rises 23:24:18 0° 320° (NW) 3,970 7.5 -32.6°
Reaches altitude 10° 23:26:56 10° 318° (NW) 3,048 6.7 -32.6°
Enters shadow 23:33:40 69° 269° (W) 1,272 3.9 -32.8°
